Zurück zum Katalog

THOR ABLESTAR DEB

AktivLEO
NORAD 158·DEBRIS·🇺🇸 United States

Gestartet Jun 29, 1961 von Cape Canaveral Space Force Station

Loading…

Nächste Überflüge (nächste 24 Stunden)

TLE

AktuellSource: Space-Track

Epoche: Sep 14, 2026, 15:35 UTC

1 00158U 61015AU  26257.64998085  .00000171  00000-0  57081-3 0  9991
2 00158  67.0758  38.0608 0611038 190.0231 168.8131 12.66263198 16547

Verfolge THOR ABLESTAR DEB in Echtzeit mit AllMySat

Download on the App Store